Dursley Dozen
Skip Navigation Links
12 February 2017
HyperLink
Click on your name for your detailed race data.
Page 1 of 10 (468 items)
[1]2345678910
Pos
Bib No
Fav
Share
Print
Name
Gun Time
Chip Time
Category
Cat Pos
Gender
Gen Pos
Club
Pace
1372Chris MCMILLAN1:19:33.41:19:33.0MSen1Male1WESTON AC 9.1 m/hr
2201Andrew GARDINER1:20:30.41:20:29.2M501Male2  8.9 m/hr
35Dan ANDERSON1:20:56.81:20:56.2MSen2Male3DURSLEY RUNNING CLUB 8.9 m/hr
496Edd CHARLTON-WEEDY1:23:41.81:23:41.2MSen3Male4  8.6 m/hr
5174James EVERETT1:23:47.91:23:47.4MSen4Male5DURSLEY RUNNING CLUB 8.6 m/hr
6525James THOMAS1:27:30.81:27:29.9MSen5Male6CIRENCESTER AC 8.2 m/hr
7134Mike CROMPTON1:27:42.01:27:41.2MSen6Male7DURSLEY RUNNING CLUB 8.2 m/hr
878Luke BYRNE1:28:40.81:28:38.4MSen7Male8SWINDON HARRIERS 8.1 m/hr
9394Jonathan NEWEY1:28:50.01:28:49.6M451Male9MALVERN JOGGERS 8.1 m/hr
10279Paul HORSFALL1:28:56.01:28:54.8MSen8Male10CHELTENHAM HARRIERS 8.1 m/hr
11184Robert FORD1:29:22.31:29:22.0MSen9Male11PORTSMOUTH JOGGERS 8.1 m/hr
12157Robert DELLER1:29:40.01:29:39.1MSen10Male12  8.0 m/hr
1314Edward BAILEY1:30:00.21:29:58.2MSen11Male13FELL RUNNERS ASSOCIATION 8.0 m/hr
14287Martin HUMPHREYS1:30:07.41:30:06.7M401Male14STROUD & DISTRICT AC 8.0 m/hr
15554Tom WARD1:30:35.91:30:35.4M402Male15ALMOST ATHLETES 7.9 m/hr
16442David RANSOME1:30:50.91:30:50.6M452Male16  7.9 m/hr
17216Annabel GRANGER1:31:15.61:31:15.2F401Female1BRISTOL & WEST AC 7.9 m/hr
18510Andrew STEPHENS 1:31:18.31:31:16.7M403Male17MONROSS TRAILBLAZERS 7.9 m/hr
19467Adrian SAVERY1:31:56.81:31:50.7MSen12Male18CLAPHAM CHASERS 7.8 m/hr
20175Howard EWAN1:31:58.81:31:56.9MSen13Male19CIRENCESTER AC 7.8 m/hr
2159Johann BREYTENBACH1:32:35.51:32:35.3M404Male20  7.8 m/hr
2264Tim BRITTON1:32:54.41:32:53.7MSen14Male21DURSLEY RUNNING CLUB 7.7 m/hr
23398James NOBLES1:34:16.91:34:14.5MSen15Male22  7.6 m/hr
24160Rob DIXON1:34:48.41:34:46.0MSen16Male23  7.6 m/hr
25273Martin HOLLAMBY1:35:10.61:35:02.1MSen17Male24PEEL ROAD RUNNERS 7.6 m/hr
26384Rob MINTON1:35:36.81:35:36.3M405Male25STRATFORD UPON AVON ATHLETICS CLUB 7.5 m/hr
27260Laurence HEWETSON1:36:14.41:36:12.8M406Male26  7.5 m/hr
2834Neil BENNETT1:36:34.91:36:31.0MSen18Male27  7.5 m/hr
29283Lee HOWARTH1:37:17.51:37:08.1MSen19Male28  7.4 m/hr
30439Niki RADNEDGE 1:37:21.91:37:17.4M407Male29  7.4 m/hr
31288Richard HURDLE1:37:25.91:37:23.8M408Male30CIRENCESTER AC 7.4 m/hr
32512Samuel STONE1:37:44.41:37:43.2MSen20Male31EMERSONS GREEN RUNNING CLUB 7.4 m/hr
33555David WATERS1:38:12.21:38:10.1M409Male32BITTON ROAD RUNNERS 7.3 m/hr
34305Braddan JOHNSON1:38:19.41:38:17.1MSen21Male33  7.3 m/hr
35456Benjamin ROSEDALE1:38:19.71:38:03.2M4010Male34  7.3 m/hr
36113Chris COND1:38:22.41:38:21.5M4011Male35  7.3 m/hr
3750Julian BOON1:38:23.71:38:22.3M453Male36FOREST OF DEAN AC 7.3 m/hr
38385Edward MORRIS1:38:29.71:38:27.0M4012Male37CIRENCESTER AC 7.3 m/hr
39355Daniel LYNCH1:38:31.71:38:31.1MSen22Male38STRATFORD UPON AVON ATHLETICS CLUB 7.3 m/hr
40179Graham FERRIS1:38:39.61:38:31.8M502Male39WITNEY ROAD RUNNERS 7.3 m/hr
41358Jonny MARKS 1:38:58.31:38:51.6MSen23Male40DURSLEY RUNNING CLUB 7.3 m/hr
42537Simon TOOTELL1:39:03.41:38:57.9MSen24Male41WOOTTON RR 7.3 m/hr
43309Matt JOHNSTONE1:39:17.61:39:14.0M4013Male42THORNBURY RUNNING CLUB 7.3 m/hr
44396Wendy NICHOLLS 1:39:21.11:39:19.8F451Female2CIRENCESTER AC 7.2 m/hr
45557Rob WATKINS1:39:25.61:39:19.0M454Male43THORNBURY RUNNING CLUB 7.2 m/hr
46112Guy COLLIS1:40:01.21:39:42.1MSen25Male44  7.2 m/hr
47426Dan PORT1:40:06.11:40:02.1MSen26Male45  7.2 m/hr
48413Mark PARKER1:40:12.81:40:07.7M455Male46TEWKESBURY RC 7.2 m/hr
493Polly AINSLEY1:40:18.01:40:17.0FSen1Female3SOUTHVILLE RUNNING CLUB 7.2 m/hr
50150Mark DAVIN1:40:43.51:40:41.8MSen27Male47KINGSWOOD TRI CLUB 7.1 m/hr
Page 1 of 10 (468 items)
[1]2345678910
fb

HyperLink Copyright (c) G Vincent, 2016